STARLINK-3787

decayed
NORAD ID: 52277 Int'l Des: 2022-041 Owner: SPXS Country: US Constellation: starlink
LEOCIRCULAR
Gruppe

Über STARLINK-3787

Beschreibung wird geladen...

Höhenverlauf

Altitude vs Time

uPlot chart will show altitude changes over time

Zweizeiliger Elementsatz

1 52277U 22041S 23364.25157378 .45960133 12333-4 53090-2 0 9994
2 52277 53.1807 54.5401 0007633 37.6503 81.3389 16.35936547 95422
Epoch: 30. Dez. 2023 • Age: 14846 hours

Aktueller Status

Position data unavailable
Startdatum 21. Apr. 2022
Alter 3.3 years
Verglühungsdatum 30. Dez. 2023
Typ internet

Technische Details

Klassifizierung Payload
Masse 297.00 kg
Trockenmasse 275.00 kg
Gesamtmasse 297.00 kg
Länge 0.20 m
Durchmesser 2.80 m
Spannweite 9.00 m
Form Box + pan
Hersteller SPXS
Bus-Typ Starlink
Phasenstatus Unknown Transfer Status
Besitzer/Staat SPXS/US

Große Konstellationen

Loading constellations...